Weather in Sokiryani

Ukraine / Chernovtci District     48°27′11″N   27°24′57″E
temp.,
°C
wind,
m/s
gust,
m/s
humid.,
%
clouds,
%
prec.,
mm/h
press.,
hPa
HPBL,
m
27 november, sat
sat2723:00+8sse91690100 0.1 9971107
02:00+8s81390100 0.1 995707
05:00+7ssw61282100 0.0 996324
08:00+6s41087100 0.0 997196
11:00+10ssw51160100 0.0 998432
14:00+11sw41157100 0.0 998511
17:00+9sw346759 0.0 100073
20:00+7wsw22805 0.0 100213
28 november, sun
sun2823:00+6sse11830 0.0 100310
02:00+5sse22865 0.0 100417
05:00+4se33865 0.0 100336
08:00+4ese228655 0.0 100323
11:00+8se41069100 0.0 1002412
14:00+10sse3964100 0.0 1001454
17:00+7sse227912 0.0 100016
20:00+6sse2290100 0.0 100019
29 november, mon
mon2923:00+6ese2292100 0.0 99823
02:00+6se3895100 0.0 996183
05:00+8se61494100 0.0 992442
08:00+7sse5109694 0.0 991353
11:00+9ssw5877100 0.0 990360
14:00+9wnw91365100 0.1 9911012
17:00+5wnw7137073 0.3 994684
20:00+3wnw613715 0.3 997702
30 november, tue
tue3023:00+1w512675 0.0 999633
02:00+1w614695 0.0 1001679
05:000wnw513705 0.0 1001562
08:00+1w71665100 0.0 1003749
11:00+3w101550100 0.0 10041185
14:00+4wnw9145551 0.0 10031400
17:00+2wnw7136538 0.0 1006913
20:00+1wnw61461100 0.0 1006771
1 december, wed
wed123:00−1wsw36704 0.0 1007135
02:00−1ssw5126878 0.0 1005271
05:000sw51154100 0.0 1004289
08:00+2wsw61250100 0.0 1004591
11:00+5wnw8154597 0.0 10051695
14:00+5wnw915526 0.0 10051597
17:00+3wnw611588 0.0 1008622
20:00+1sw1170100 0.0 100810